Location: Marcé
(47.5801°N, 0.3280°W)
Time: 02:48:39
(UTC+01:00)

Explorer 11/Cluster Stage 4 - Pass Details

Date: 03 December 2021
Orbit: 467 x 1255 km, 28.8° (Epoch: 26 January)

Event Time Altitude Azimuth Distance (km) Brightness Sun altitude
Rises 06:18:38 0° 243° (WSW) 3,935 - -21.5°
Reaches altitude 10° 06:22:26 10° 225° (SW) 3,086 - -20.9°
Exits shadow 06:22:30 10° 225° (SW) 3,074 9.3 -20.8°
Maximum altitude 06:27:08 17° 188° (S) 2,668 9.3 -20.1°
Drops below altitude 10° 06:31:59 10° 151° (SSE) 3,220 10.2 -19.3°
Sets 06:36:06 0° 133° (SE) 4,180 11.3 -18.6°
